Location: Esp�n
(42.4593°N, 0.2047°W)
Time: 21:15:44
(UTC+00:00)

Cosmos 1980 Rocket - Pass Details

Date: 07 June 2020
Orbit: 828 x 851 km, 71.0° (Epoch: 13 July)

Event Time Altitude Azimuth Distance (km) Brightness Sun altitude
Exits shadow 00:51:36 59° 191° (S) 963 2.1 -23.7°
Maximum altitude 00:52:43 83° 113° (ESE) 848 2.1 -23.6°
Drops below altitude 10° 00:58:23 10° 26° (NNE) 2,466 5.7 -23.4°
Sets 01:00:51 0° 26° (NNE) 3,408 6.7 -23.3°
